Time,TemperatureF,DewpointF,PressureIn,WindDirection,WindDirectionDegrees,WindSpeedMPH,WindSpeedGustMPH,Humidity,HourlyPrecipIn,Conditions,Clouds,dailyrainin,SolarRadiationWatts/m^2,SoftwareType,DateUTC
2013-09-04 00:03:00,59.0,54.0,-100.00,NW,307,3.0,9.0,83,0.00,,,0.00,0.000000,,2013-09-04 05:03:00,
2013-09-04 00:12:00,59.0,54.0,-100.00,NW,307,3.0,9.0,83,0.00,,,0.00,0.000000,,2013-09-04 05:12:00,
2013-09-04 00:43:00,59.0,54.0,-100.00,NW,308,2.0,8.0,83,0.00,,,0.00,0.000000,,2013-09-04 05:43:00,
2013-09-04 00:53:00,59.0,54.0,-100.00,NW,308,2.0,8.0,83,0.00,,,0.00,0.000000,,2013-09-04 05:53:00,
2013-09-04 01:02:00,59.0,54.0,-100.00,NW,308,2.0,8.0,83,0.00,,,0.00,0.000000,,2013-09-04 06:02:00,
2013-09-04 01:12:00,59.0,54.0,-100.00,NW,308,2.0,8.0,83,0.00,,,0.00,0.000000,,2013-09-04 06:12:00,
2013-09-04 01:42:00,59.0,54.0,-100.00,WNW,288,3.0,9.0,83,0.00,,,0.00,0.000000,,2013-09-04 06:42:00,
2013-09-04 01:52:00,59.0,54.0,-100.00,WNW,288,3.0,9.0,83,0.00,,,0.00,0.000000,,2013-09-04 06:52:00,
2013-09-04 02:02:00,59.0,54.0,-100.00,WNW,288,3.0,9.0,83,0.00,,,0.00,0.000000,,2013-09-04 07:02:00,
2013-09-04 02:11:00,59.0,54.0,-100.00,WNW,288,3.0,9.0,83,0.00,,,0.00,0.000000,,2013-09-04 07:11:00,
2013-09-04 02:42:00,59.0,54.0,-100.00,WNW,288,2.0,8.0,85,0.00,,,-99.99,0.000000,,2013-09-04 07:42:00,
2013-09-04 02:52:00,59.0,54.0,-100.00,WNW,288,2.0,8.0,85,0.00,,,-99.99,0.000000,,2013-09-04 07:52:00,
2013-09-04 03:02:00,59.0,54.0,-100.00,WNW,288,2.0,8.0,85,0.00,,,-99.99,0.000000,,2013-09-04 08:02:00,
2013-09-04 03:12:00,59.0,54.0,-100.00,WNW,288,2.0,8.0,85,0.00,,,-99.99,0.000000,,2013-09-04 08:12:00,
2013-09-04 03:43:00,58.0,54.0,-100.00,NW,321,2.0,7.0,88,0.00,,,0.00,0.000000,,2013-09-04 08:43:00,
2013-09-04 03:52:00,58.0,54.0,-100.00,NW,321,2.0,7.0,88,0.00,,,0.00,0.000000,,2013-09-04 08:52:00,
2013-09-04 04:01:00,58.0,54.0,-100.00,NW,321,2.0,7.0,88,0.00,,,0.00,0.000000,,2013-09-04 09:01:00,
2013-09-04 04:11:00,58.0,54.0,-100.00,NW,321,2.0,7.0,88,0.00,,,0.00,0.000000,,2013-09-04 09:11:00,
2013-09-04 04:43:00,56.0,54.0,-100.00,West,277,1.0,4.0,93,0.00,,,0.00,0.000000,,2013-09-04 09:43:00,
2013-09-04 04:53:00,56.0,54.0,-100.00,West,277,1.0,4.0,93,0.00,,,0.00,0.000000,,2013-09-04 09:53:00,
2013-09-04 05:03:00,56.0,54.0,-100.00,West,277,1.0,4.0,93,0.00,,,0.00,0.000000,,2013-09-04 10:03:00,
2013-09-04 05:12:00,56.0,54.0,-100.00,West,277,1.0,4.0,93,0.00,,,0.00,0.000000,,2013-09-04 10:12:00,
2013-09-04 05:42:00,59.0,55.0,-100.00,NW,320,1.0,5.0,86,0.00,,,0.00,0.000000,,2013-09-04 10:42:00,
2013-09-04 05:52:00,59.0,55.0,-100.00,NW,320,1.0,5.0,86,0.00,,,0.00,0.000000,,2013-09-04 10:52:00,
2013-09-04 06:02:00,59.0,55.0,-100.00,NW,320,1.0,5.0,86,0.00,,,0.00,0.000000,,2013-09-04 11:02:00,
2013-09-04 06:12:00,59.0,55.0,-100.00,NW,320,1.0,5.0,86,0.00,,,0.00,0.000000,,2013-09-04 11:12:00,
2013-09-04 06:42:00,58.0,55.0,-100.00,NE,34,4.0,12.0,90,0.00,,,-99.99,0.000000,,2013-09-04 11:42:00,
2013-09-04 06:52:00,58.0,55.0,-100.00,NE,34,4.0,12.0,90,0.00,,,-99.99,0.000000,,2013-09-04 11:52:00,
2013-09-04 07:02:00,58.0,55.0,-100.00,NE,34,4.0,12.0,90,0.00,,,-99.99,0.000000,,2013-09-04 12:02:00,
2013-09-04 07:11:00,58.0,55.0,-100.00,NE,34,4.0,12.0,90,0.00,,,-99.99,0.000000,,2013-09-04 12:11:00,
2013-09-04 07:42:00,55.0,51.0,-100.00,NNE,22,4.0,13.0,87,0.00,,,0.00,13.000000,,2013-09-04 12:42:00,
2013-09-04 07:52:00,55.0,51.0,-100.00,NNE,22,4.0,13.0,87,0.00,,,0.00,13.000000,,2013-09-04 12:52:00,
2013-09-04 08:02:00,55.0,51.0,-100.00,NNE,22,4.0,13.0,87,0.00,,,0.00,13.000000,,2013-09-04 13:02:00,
2013-09-04 08:11:00,55.0,51.0,-100.00,NNE,22,4.0,13.0,87,0.00,,,0.00,13.000000,,2013-09-04 13:11:00,
2013-09-04 08:42:00,56.0,49.0,-100.00,NNE,22,4.0,10.0,78,0.00,,,0.00,94.000000,,2013-09-04 13:42:00,
2013-09-04 08:52:00,56.0,49.0,-100.00,NNE,22,4.0,10.0,78,0.00,,,0.00,94.000000,,2013-09-04 13:52:00,
2013-09-04 09:02:00,56.0,49.0,-100.00,NNE,22,4.0,10.0,78,0.00,,,0.00,94.000000,,2013-09-04 14:02:00,
2013-09-04 09:11:00,56.0,49.0,-100.00,NNE,22,4.0,10.0,78,0.00,,,0.00,94.000000,,2013-09-04 14:11:00,
2013-09-04 09:42:00,57.0,50.0,-100.00,NE,47,4.0,11.0,77,0.00,,,0.00,198.000000,,2013-09-04 14:42:00,
2013-09-04 09:52:00,57.0,50.0,-100.00,NE,47,4.0,11.0,77,0.00,,,0.00,198.000000,,2013-09-04 14:52:00,
2013-09-04 10:02:00,57.0,50.0,-100.00,NE,47,4.0,11.0,77,0.00,,,0.00,198.000000,,2013-09-04 15:02:00,
2013-09-04 10:12:00,57.0,50.0,-100.00,NE,47,4.0,11.0,77,0.00,,,0.00,198.000000,,2013-09-04 15:12:00,
2013-09-04 10:43:00,60.0,47.0,-100.00,North,354,5.0,9.0,63,0.00,,,0.00,413.000000,,2013-09-04 15:43:00,
2013-09-04 10:53:00,60.0,47.0,-100.00,North,354,5.0,9.0,63,0.00,,,0.00,413.000000,,2013-09-04 15:53:00,
2013-09-04 11:04:00,60.0,47.0,-100.00,North,354,5.0,9.0,63,0.00,,,0.00,413.000000,,2013-09-04 16:04:00,
2013-09-04 11:12:00,60.0,47.0,-100.00,North,354,5.0,9.0,63,0.00,,,0.00,413.000000,,2013-09-04 16:12:00,
2013-09-04 11:13:00,62.0,49.0,-100.00,North,6,5.0,11.0,62,0.00,,,0.00,546.000000,,2013-09-04 16:13:00,
2013-09-04 11:43:00,62.0,49.0,-100.00,North,6,5.0,11.0,62,0.00,,,0.00,546.000000,,2013-09-04 16:43:00,
2013-09-04 11:53:00,62.0,49.0,-100.00,North,6,5.0,11.0,62,0.00,,,0.00,546.000000,,2013-09-04 16:53:00,
2013-09-04 12:03:00,62.0,49.0,-100.00,North,6,5.0,11.0,62,0.00,,,0.00,546.000000,,2013-09-04 17:03:00,
2013-09-04 12:13:00,66.0,49.0,-100.00,NNE,31,5.0,10.0,55,0.00,,,0.00,783.000000,,2013-09-04 17:13:00,
2013-09-04 12:42:00,66.0,49.0,-100.00,NNE,31,5.0,10.0,55,0.00,,,0.00,783.000000,,2013-09-04 17:42:00,
2013-09-04 12:53:00,66.0,49.0,-100.00,NNE,31,5.0,10.0,55,0.00,,,0.00,783.000000,,2013-09-04 17:53:00,
2013-09-04 13:02:00,66.0,49.0,-100.00,NNE,31,5.0,10.0,55,0.00,,,0.00,783.000000,,2013-09-04 18:02:00,
2013-09-04 13:42:00,68.0,50.0,-100.00,NW,306,4.0,11.0,52,0.00,,,0.00,837.000000,,2013-09-04 18:42:00,
2013-09-04 13:52:00,68.0,50.0,-100.00,NW,306,4.0,11.0,52,0.00,,,0.00,837.000000,,2013-09-04 18:52:00,
2013-09-04 14:02:00,68.0,50.0,-100.00,NW,306,4.0,11.0,52,0.00,,,0.00,837.000000,,2013-09-04 19:02:00,
2013-09-04 14:11:00,68.0,50.0,-100.00,NW,306,4.0,11.0,52,0.00,,,0.00,837.000000,,2013-09-04 19:11:00,
2013-09-04 14:42:00,70.0,48.0,-100.00,NW,307,4.0,11.0,45,0.00,,,0.00,828.000000,,2013-09-04 19:42:00,
2013-09-04 14:52:00,70.0,48.0,-100.00,NW,307,4.0,11.0,45,0.00,,,0.00,828.000000,,2013-09-04 19:52:00,
2013-09-04 15:02:00,70.0,48.0,-100.00,NW,307,4.0,11.0,45,0.00,,,0.00,828.000000,,2013-09-04 20:02:00,
2013-09-04 15:11:00,70.0,48.0,-100.00,NW,307,4.0,11.0,45,0.00,,,0.00,828.000000,,2013-09-04 20:11:00,
2013-09-04 15:43:00,72.0,48.0,-100.00,WNW,303,4.0,11.0,42,0.00,,,0.00,748.000000,,2013-09-04 20:43:00,
2013-09-04 15:53:00,72.0,48.0,-100.00,WNW,303,4.0,11.0,42,0.00,,,0.00,748.000000,,2013-09-04 20:53:00,
2013-09-04 16:02:00,72.0,48.0,-100.00,WNW,303,4.0,11.0,42,0.00,,,0.00,748.000000,,2013-09-04 21:02:00,
2013-09-04 16:12:00,72.0,48.0,-100.00,WNW,303,4.0,11.0,42,0.00,,,0.00,748.000000,,2013-09-04 21:12:00,
2013-09-04 16:13:00,71.0,42.0,-100.00,NNW,330,4.0,11.0,35,0.00,,,0.00,624.000000,,2013-09-04 21:13:00,
2013-09-04 16:44:00,71.0,42.0,-100.00,NNW,330,4.0,11.0,35,0.00,,,0.00,624.000000,,2013-09-04 21:44:00,
2013-09-04 16:54:00,71.0,42.0,-100.00,NNW,330,4.0,11.0,35,0.00,,,0.00,624.000000,,2013-09-04 21:54:00,
2013-09-04 17:04:00,71.0,42.0,-100.00,NNW,330,4.0,11.0,35,0.00,,,0.00,624.000000,,2013-09-04 22:04:00,
2013-09-04 17:13:00,70.0,44.0,-100.00,NNW,346,3.0,9.0,39,0.00,,,0.00,452.000000,,2013-09-04 22:13:00,
2013-09-04 17:43:00,70.0,44.0,-100.00,NNW,346,3.0,9.0,39,0.00,,,0.00,452.000000,,2013-09-04 22:43:00,
2013-09-04 17:55:00,70.0,44.0,-100.00,NNW,346,3.0,9.0,39,0.00,,,0.00,452.000000,,2013-09-04 22:55:00,
2013-09-04 18:03:00,70.0,44.0,-100.00,NNW,346,3.0,9.0,39,0.00,,,0.00,452.000000,,2013-09-04 23:03:00,
2013-09-04 18:42:00,69.0,48.0,-100.00,North,350,2.0,8.0,48,0.00,,,0.00,265.000000,,2013-09-04 23:42:00,
2013-09-04 18:52:00,69.0,48.0,-100.00,North,350,2.0,8.0,48,0.00,,,0.00,265.000000,,2013-09-04 23:52:00,
2013-09-04 19:01:00,69.0,48.0,-100.00,North,350,2.0,8.0,48,0.00,,,0.00,265.000000,,2013-09-05 00:01:00,
2013-09-04 19:11:00,69.0,48.0,-100.00,North,350,2.0,8.0,48,0.00,,,0.00,265.000000,,2013-09-05 00:11:00,
2013-09-04 19:43:00,60.0,52.0,-100.00,NNW,331,1.0,5.0,74,0.00,,,0.00,43.000000,,2013-09-05 00:43:00,
2013-09-04 19:52:00,60.0,52.0,-100.00,NNW,331,1.0,5.0,74,0.00,,,0.00,43.000000,,2013-09-05 00:52:00,
2013-09-04 20:01:00,60.0,52.0,-100.00,NNW,331,1.0,5.0,74,0.00,,,0.00,43.000000,,2013-09-05 01:01:00,
2013-09-04 20:11:00,60.0,52.0,-100.00,NNW,331,1.0,5.0,74,0.00,,,0.00,43.000000,,2013-09-05 01:11:00,
2013-09-04 20:42:00,56.0,44.0,-100.00,WNW,301,2.0,5.0,65,0.00,,,0.00,2.000000,,2013-09-05 01:42:00,
2013-09-04 20:52:00,56.0,44.0,-100.00,WNW,301,2.0,5.0,65,0.00,,,0.00,2.000000,,2013-09-05 01:52:00,
2013-09-04 21:02:00,56.0,44.0,-100.00,WNW,301,2.0,5.0,65,0.00,,,0.00,2.000000,,2013-09-05 02:02:00,
2013-09-04 21:11:00,56.0,44.0,-100.00,WNW,301,2.0,5.0,65,0.00,,,0.00,2.000000,,2013-09-05 02:11:00,
2013-09-04 21:52:00,51.0,44.0,-100.00,NNW,347,2.0,6.0,76,0.00,,,0.00,0.000000,,2013-09-05 02:52:00,
2013-09-04 22:02:00,51.0,44.0,-100.00,NNW,347,2.0,6.0,76,0.00,,,0.00,0.000000,,2013-09-05 03:02:00,
2013-09-04 22:12:00,51.0,44.0,-100.00,NNW,347,2.0,6.0,76,0.00,,,0.00,0.000000,,2013-09-05 03:12:00,
2013-09-04 22:13:00,46.0,44.0,-100.00,NNW,346,0.0,3.0,93,0.00,,,0.00,0.000000,,2013-09-05 03:13:00,
2013-09-04 22:45:00,46.0,44.0,-100.00,NNW,346,0.0,3.0,93,0.00,,,0.00,0.000000,,2013-09-05 03:45:00,
2013-09-04 22:54:00,46.0,44.0,-100.00,NNW,346,0.0,3.0,93,0.00,,,0.00,0.000000,,2013-09-05 03:54:00,
2013-09-04 23:04:00,46.0,44.0,-100.00,NNW,346,0.0,3.0,93,0.00,,,0.00,0.000000,,2013-09-05 04:04:00,
2013-09-04 23:44:00,44.0,43.0,-100.00,WNW,288,0.0,2.0,97,0.00,,,0.00,0.000000,,2013-09-05 04:44:00,
2013-09-04 23:53:00,44.0,43.0,-100.00,WNW,288,0.0,2.0,97,0.00,,,0.00,0.000000,,2013-09-05 04:53:00,